Hauptseite
METAR-TAF:

METAR-TAF

Flughäfen :

Glücksburg, Deutschland

Meierwik

Breite: 54-50N, Länge: 009-30E, Höhe: 27 m

Beobachtung

Neuester Wetterbericht von vor 1 Stunde und 31 Minuten, um 13:20 UTC
Wind 17 kt aus West
Temperatur 15°C
Luftfeuchtigkeit 88%
Luftdruck 1016 hPa
Sichtweite 10 km oder mehr
Aufgelockert bewölkt in der Höhe von 1800 ft, Towering cumulus.
Durchbrochene Bewölkung in der Höhe von 5000 ft

METAR: ETGG 201320Z 27017KT 9999 SCT018TCU BKN050 15/13 Q1016 BLU

Zeit: 16:51 (14:51 UTC)


TAF: fehlend

Wetterbeobachtungen und Prognosen von mehr als 4000 Flughäfen (METAR und TAF Bericht).

Die verfügbaren Stationen werden durch gelbe und rote Markierungen auf der Karte dargestellt.

Führen Sie die Maus auf sie, um den Namen der Station zu sehen.

Darauf klicken, um die Beobachtung von Wetterbeobachtungen und Prognosen zu sehen.

Um die Karte zu ändern : klicken Sie auf den grünen Tasten mit einem schwarzen Kreuz Zum Vergrößern, auf den grünen Button mit einem Gedankenstrich zu verkleinern, oder auf die grünen Pfeile für benachbarte Karten.


METAR-TAF: